FENGYUN 1C DEB, 31776

Orbit data source: Space-Track

FENGYUN 1C DEB, 31776 is space debris in SSO originally from a launch on Mon, 10 May 1999 UTC launched from the Taiyaun Space Center, China (TSC). Fengyun 1C debris stems from the Chinese weather satellite Fengyun-1C, which was intentionally destroyed by a Chinese anti-satellite missile in 2007. This event dramatically increased the amount of space debris, with thousands of trackable fragments posing hazards to satellites and human spaceflight. The Fengyun 1C debris cloud has become a focal point in discussions about space sustainability and the need for international regulations to prevent the creation of new debris.

Loading next visibility...
Identifier
31776, 1999-025CGB
Orbit
SSO
Country
Flag of CNCN / PRC
Related business
Manufacturer
Unknown
Mission
Spacecraft
Bus & Motor
Unknown
Mass
Unknown
Launch date (UTC)
1999-05-10 (27 years ago)
Launch vehicle
Unknown
Launch site
Taiyaun Space Center, China (TSC)
Object type
Payload
Rocket body
Debris
Shape & HBR
Unknown shape, 0.1 m
Radar Cross Section
Small (<0.1 m²)

Expand to show TLE details & history
Last TLE update: 5 days ago

TLE from 5 days ago
0 FENGYUN 1C DEB
1 31776U 99025CGB 26161.42497894  .00002282  00000-0  10867-2 0  9990
2 31776  99.0589 230.2651 0055212 181.8523 241.2334 14.19576171974290
Epoch: 2026-06-10T10:11Z
TLE epoch observation values (Epoch: 2026-06-10T10:11:58.180Z)
Latitude
61.28336°
Longitude
161.6622°
Altitude
856.531 km
Speed
7.42 km/s
True Right ascension
14h 13m 45s
True Declination
61° 08' 25"
Sunlit
Object was in daylight at epoch
Visualization orbit readout
Latitude
Unknown
Longitude
Unknown
Altitude
Unknown
Speed
Unknown
Apparent Right ascension
Unknown
Apparent Declination
Unknown
Sunlit
N/A
Visualization observer readout
Local Sidereal Time
03:01:13
Azimuth
Unknown
Elevation
Unknown
Doppler factor
Unknown
Orbital elements
Apogee altitude
863.727 km
Perigee altitude
784.198 km
Semi-major axis
7,202.1 km
Eccentricity
0.00552
Inclination
99.0589°
RAAN
230.2651°
Arg. of periapsis
181.8523°
True anomaly
240.68064°
Mean anomaly
241.2334°
Eccentric anomaly
240.95684°
Mean motion
3.55103 °/min
Orbital period
101.38 mins
BSTAR
0.0010867
Loading maneuver chart data...
Computing Atmospheric mass density...
Loading historical data...
Loading historical data...
Loading historical data...
Loading historical data...
Loading historical data...
Loading historical data...
Loading historical data...

Documentation

Showing up to 5 results
|